Location: downtown San Diego
(32.7310°N, 117.1990°W)
Time: 18:32:20
(UTC-08:00)

Cosmos 1741 Rocket - Pass Details

Date: 12 July 2018
Orbit: 761 x 783 km, 74.0° (Epoch: 20 November)

Event Time Altitude Azimuth Distance (km) Brightness Sun altitude
Rises 20:42:30 0° 179° (S) 3,236 6.9 -8.8°
Reaches altitude 10° 20:44:57 10° 173° (S) 2,310 6.1 -9.2°
Maximum altitude 20:49:55 45° 102° (ESE) 1,047 4.3 -10.1°
Drops below altitude 10° 20:54:53 10° 31° (NNE) 2,309 6.5 -11.0°
Sets 20:57:20 0° 25° (NNE) 3,236 7.4 -11.4°
